When you browse on this site, cookies collect data to enhance your experience and personalize the content and advertising you see.
Visit our Privacy Policy to learn more. By continuing to use the site, you agree to this use of cookies and data.
  • In Austria
  • List of Countries
  • For 7 days
  • Water Temperature
  • Weather Map
  • News
  • Weather Widgets
  • user-avatar
    Login

    Hourly Weather Valencia

    Today, 23 January, Thursday

    Time Temperature Precipitation Wind Pressure Humidity
    00:00 +23°C° 0 mm 1 mps 716 mmHg 93%
    01:00 +23°C° 0 mm 1 mps 716 mmHg 94%
    02:00 +23°C° 0 mm 1 mps 716 mmHg 93%
    03:00 +23°C° 0 mm 1 mps 715 mmHg 93%
    04:00 +22°C° 0 mm 1 mps 715 mmHg 92%
    05:00 +23°C° 0 mm 1 mps 716 mmHg 91%
    06:00 +23°C° 0 mm 1 mps 716 mmHg 90%
    07:00 +23°C° 0 mm 1 mps 717 mmHg 89%
    08:00 +25°C° 0 mm 1 mps 718 mmHg 80%
    09:00 +28°C° 0 mm 2 mps 718 mmHg 70%
    10:00 +30°C° 0 mm 2 mps 719 mmHg 61%
    11:00 +30°C° 0 mm 2 mps 718 mmHg 57%
    12:00 +31°C° 0 mm 2 mps 717 mmHg 54%
    13:00 +31°C° 0 mm 3 mps 716 mmHg 51%
    14:00 +30°C° 0 mm 3 mps 716 mmHg 54%
    15:00 +30°C° 0 mm 3 mps 715 mmHg 58%
    16:00 +29°C° 0 mm 3 mps 715 mmHg 61%
    17:00 +27°C° 0 mm 3 mps 715 mmHg 68%
    18:00 +25°C° 0 mm 2 mps 715 mmHg 76%
    19:00 +23°C° 0 mm 2 mps 715 mmHg 83%
    20:00 +23°C° 0 mm 2 mps 716 mmHg 84%
    21:00 +23°C° 0 mm 2 mps 716 mmHg 86%
    22:00 +21°C° 0 mm 2 mps 717 mmHg 87%
    23:00 +21°C° 0 mm 2 mps 717 mmHg 88%

    Tomorrow, 24 January, Friday

    Time Temperature Precipitation Wind Pressure Humidity
    00:00 +21°C° 0 mm 2 mps 716 mmHg 88%
    01:00 +20°C° 0 mm 2 mps 716 mmHg 89%
    02:00 +20°C° 0 mm 2 mps 716 mmHg 90%
    03:00 +20°C° 0 mm 2 mps 716 mmHg 91%
    04:00 +20°C° 0 mm 2 mps 716 mmHg 92%
    05:00 +20°C° 0 mm 2 mps 716 mmHg 91%
    06:00 +21°C° 0 mm 2 mps 717 mmHg 89%
    07:00 +21°C° 0 mm 2 mps 718 mmHg 88%
    08:00 +24°C° 0 mm 2 mps 718 mmHg 77%
    09:00 +26°C° 0 mm 2 mps 719 mmHg 67%
    10:00 +28°C° 0 mm 2 mps 719 mmHg 56%
    11:00 +29°C° 0 mm 2 mps 719 mmHg 52%
    12:00 +30°C° 0 mm 2 mps 718 mmHg 48%
    13:00 +31°C° 0 mm 2 mps 717 mmHg 44%
    14:00 +30°C° 0 mm 2 mps 717 mmHg 46%
    15:00 +29°C° 0 mm 2 mps 716 mmHg 48%
    16:00 +28°C° 0 mm 3 mps 715 mmHg 50%
    17:00 +26°C° 0 mm 2 mps 716 mmHg 61%
    18:00 +24°C° 0 mm 2 mps 716 mmHg 71%
    19:00 +21°C° 0 mm 2 mps 716 mmHg 81%
    20:00 +21°C° 0 mm 2 mps 717 mmHg 85%
    21:00 +21°C° 0 mm 2 mps 717 mmHg 89%
    22:00 +21°C° 0 mm 2 mps 718 mmHg 93%
    23:00 +21°C° 0 mm 2 mps 718 mmHg 93%

    Day after tomorrow, 25 January, Saturday

    Time Temperature Precipitation Wind Pressure Humidity
    00:00 +21°C° 0 mm 2 mps 717 mmHg 93%
    01:00 +21°C° 0 mm 2 mps 717 mmHg 93%
    02:00 +21°C° 0 mm 2 mps 717 mmHg 93%
    03:00 +21°C° 0 mm 2 mps 717 mmHg 94%
    04:00 +22°C° 0 mm 1 mps 717 mmHg 94%
    05:00 +22°C° 0 mm 1 mps 717 mmHg 93%
    06:00 +22°C° 0 mm 1 mps 718 mmHg 91%
    07:00 +23°C° 0 mm 1 mps 718 mmHg 90%
    08:00 +25°C° 0 mm 1 mps 719 mmHg 80%
    09:00 +28°C° 0 mm 1 mps 719 mmHg 69%
    10:00 +30°C° 0 mm 1 mps 720 mmHg 59%
    11:00 +31°C° 0 mm 1 mps 719 mmHg 54%
    12:00 +32°C° 0 mm 1 mps 719 mmHg 50%
    13:00 +33°C° 0 mm 1 mps 718 mmHg 46%
    14:00 +31°C° 0 mm 2 mps 717 mmHg 52%
    15:00 +30°C° 0 mm 2 mps 717 mmHg 59%
    16:00 +29°C° 0 mm 2 mps 716 mmHg 65%
    17:00 +27°C° 0 mm 2 mps 716 mmHg 74%
    18:00 +26°C° 0 mm 2 mps 716 mmHg 82%
    19:00 +24°C° 0 mm 2 mps 717 mmHg 90%
    20:00 +24°C° 0 mm 2 mps 717 mmHg 91%
    21:00 +23°C° 0 mm 2 mps 717 mmHg 92%
    22:00 +23°C° 0 mm 2 mps 718 mmHg 93%
    23:00 +23°C° 0 mm 2 mps 717 mmHg 94%

    26 January, Sunday

    Time Temperature Precipitation Wind Pressure Humidity
    00:00 +23°C° 0 mm 1 mps 717 mmHg 94%
    01:00 +23°C° 0 mm 1 mps 717 mmHg 94%
    02:00 +23°C° 0 mm 1 mps 717 mmHg 94%
    03:00 +23°C° 0 mm 1 mps 717 mmHg 94%
    04:00 +22°C° 0 mm 1 mps 717 mmHg 93%
    05:00 +23°C° 0 mm 1 mps 717 mmHg 92%
    06:00 +23°C° 0 mm 1 mps 718 mmHg 90%
    07:00 +23°C° 0 mm 1 mps 718 mmHg 88%
    08:00 +25°C° 0.1 mm 1 mps 719 mmHg 80%
    09:00 +27°C° 0.1 mm 1 mps 719 mmHg 72%
    10:00 +29°C° 0.1 mm 1 mps 720 mmHg 63%
    11:00 +30°C° 0.4 mm 1 mps 719 mmHg 62%
    12:00 +30°C° 0.4 mm 1 mps 718 mmHg 60%
    13:00 +31°C° 0.4 mm 1 mps 718 mmHg 59%
    14:00 +30°C° 0.4 mm 2 mps 717 mmHg 63%
    15:00 +29°C° 0.4 mm 2 mps 717 mmHg 67%
    16:00 +28°C° 0.4 mm 2 mps 716 mmHg 70%
    17:00 +26°C° 0 mm 2 mps 716 mmHg 77%
    18:00 +25°C° 0 mm 2 mps 717 mmHg 83%
    19:00 +23°C° 0 mm 2 mps 717 mmHg 89%
    20:00 +23°C° 0 mm 2 mps 717 mmHg 90%
    21:00 +21°C° 0 mm 2 mps 717 mmHg 91%
    22:00 +21°C° 0 mm 2 mps 718 mmHg 92%
    23:00 +22°C° 0 mm 1 mps 718 mmHg 93%

    27 January, Monday

    Time Temperature Precipitation Wind Pressure Humidity
    00:00 +22°C° 0 mm 1 mps 717 mmHg 94%
    01:00 +22°C° 0 mm 1 mps 717 mmHg 94%
    02:00 +22°C° 0 mm 1 mps 717 mmHg 95%
    03:00 +21°C° 0 mm 1 mps 717 mmHg 95%
    04:00 +20°C° 0 mm 2 mps 717 mmHg 95%
    05:00 +20°C° 0 mm 2 mps 717 mmHg 94%
    06:00 +21°C° 0 mm 2 mps 718 mmHg 92%
    07:00 +22°C° 0 mm 1 mps 719 mmHg 90%
    08:00 +25°C° 0 mm 1 mps 719 mmHg 78%
    09:00 +27°C° 0 mm 1 mps 719 mmHg 66%
    10:00 +30°C° 0 mm 1 mps 720 mmHg 54%
    11:00 +31°C° 0 mm 1 mps 719 mmHg 51%
    12:00 +32°C° 0 mm 1 mps 719 mmHg 47%
    13:00 +33°C° 0 mm 1 mps 718 mmHg 44%
    14:00 +32°C° 0 mm 1 mps 717 mmHg 49%
    15:00 +31°C° 0 mm 2 mps 717 mmHg 54%
    16:00 +30°C° 0 mm 2 mps 716 mmHg 59%
    17:00 +28°C° 0 mm 2 mps 716 mmHg 69%
    18:00 +25°C° 0 mm 2 mps 716 mmHg 78%
    19:00 +23°C° 0 mm 2 mps 717 mmHg 88%
    20:00 +23°C° 0 mm 2 mps 717 mmHg 90%
    21:00 +23°C° 0 mm 2 mps 717 mmHg 91%
    22:00 +21°C° 0 mm 2 mps 718 mmHg 92%
    23:00 +21°C° 0 mm 2 mps 717 mmHg 92%

    28 January, Tuesday

    Time Temperature Precipitation Wind Pressure Humidity
    00:00 +21°C° 0 mm 2 mps 717 mmHg 93%
    01:00 +22°C° 0 mm 1 mps 717 mmHg 93%
    02:00 +22°C° 0 mm 1 mps 717 mmHg 94%
    03:00 +22°C° 0 mm 1 mps 717 mmHg 94%
    04:00 +21°C° 0 mm 1 mps 717 mmHg 94%
    05:00 +22°C° 0 mm 1 mps 717 mmHg 92%
    06:00 +22°C° 0 mm 1 mps 718 mmHg 90%
    07:00 +22°C° 0 mm 1 mps 718 mmHg 88%
    08:00 +25°C° 0 mm 1 mps 719 mmHg 76%
    09:00 +28°C° 0 mm 1 mps 719 mmHg 64%
    10:00 +31°C° 0 mm 1 mps 720 mmHg 52%
    11:00 +32°C° 0 mm 1 mps 719 mmHg 49%
    12:00 +32°C° 0 mm 1 mps 718 mmHg 46%
    13:00 +34°C° 0 mm 2 mps 718 mmHg 43%
    14:00 +32°C° 0 mm 2 mps 717 mmHg 48%
    15:00 +31°C° 0 mm 2 mps 716 mmHg 52%
    16:00 +30°C° 0 mm 3 mps 716 mmHg 56%
    17:00 +27°C° 0 mm 2 mps 716 mmHg 66%
    18:00 +25°C° 0 mm 2 mps 716 mmHg 75%
    19:00 +23°C° 0 mm 1 mps 716 mmHg 84%
    20:00 +23°C° 0 mm 2 mps 717 mmHg 86%
    21:00 +21°C° 0 mm 2 mps 717 mmHg 87%
    22:00 +21°C° 0 mm 2 mps 717 mmHg 88%
    23:00 +21°C° 0 mm 2 mps 717 mmHg 90%
    Show more